Location: Newark
(45.7667°N, 11.5167°E)
Time: 23:16:22
(UTC+00:00)

N. Korean satellite - Visible Passes

Search period start: 18 January 2020 00:00
Search period end: 28 January 2020 00:00
Orbit: 454 x 508 km, 97.2° (Epoch: 18 January)

Date Brightness Start Highest point End Pass type
(mag) Time Alt. Az. Time Alt. Az. Time Alt. Az.
18 Jan 9.8 04:04:00 10° ENE 04:05:48 13° E 04:07:37 10° ESE visible
18 Jan 6.9 05:36:05 10° N 05:39:24 41° WNW 05:42:45 10° SW visible
19 Jan 6.4 05:10:27 10° NNE 05:13:58 89° W 05:17:31 10° SSW visible
19 Jan 10.0 17:23:44 10° WSW 17:25:02 12° W 17:26:20 10° WNW visible
20 Jan 7.8 04:45:04 10° NNE 04:48:26 42° E 04:51:51 10° S visible
20 Jan 9.2 16:56:33 10° SSW 16:59:20 23° W 17:02:08 10° NW visible
21 Jan 9.2 04:20:04 10° NE 04:22:50 21° E 04:25:36 10° SE visible
21 Jan 7.5 05:53:12 10° NNW 05:56:12 26° WNW 05:59:14 10° SW visible
22 Jan 10.1 03:56:09 10° ENE 03:57:08 11° E 03:58:07 10° ESE visible
22 Jan 6.6 05:27:22 10° N 05:30:49 53° WNW 05:34:19 10° SSW visible
23 Jan 6.8 05:01:49 10° NNE 05:05:21 71° ESE 05:08:57 10° S visible
23 Jan 9.8 17:14:20 10° SW 17:16:20 15° W 17:18:20 10° NW visible
24 Jan 8.3 04:36:32 10° NNE 04:39:48 33° E 04:43:06 10° SSE visible
24 Jan 8.0 06:10:31 10° NNW 06:12:58 18° WNW 06:15:26 10° WSW visible
24 Jan 8.8 16:47:38 10° SSW 16:50:39 29° W 16:53:41 10° NW visible
25 Jan 9.5 04:11:42 10° NE 04:14:10 17° E 04:16:38 10° SE visible
25 Jan 7.2 05:44:25 10° N 05:47:38 33° WNW 05:50:54 10° SW visible
26 Jan 6.4 05:18:39 10° N 05:22:13 69° WNW 05:25:49 10° SSW visible
27 Jan 7.3 04:53:11 10° NNE 04:56:44 55° E 05:00:18 10° S visible
27 Jan 9.6 17:05:09 10° SW 17:07:36 18° W 17:10:05 10° NW visible
